Wetterdaten: Dienstag, 09.07.2013
Datum Zeit Temperatur Luftfeuchte Luftdruck Regen Wind Richtung Richtung Taupunkt Windchill Windben
09.07.2013 00:00 14,3 C 80 % 1027,6 hPa 0,0 l/m 0,0 km/h (0 Bft) O-SO 112 10,9 C 14,0 C 0,0 km/h (0 Bft)
09.07.2013 00:05 14,1 C 81 % 1027,4 hPa 0,0 l/m 0,0 km/h (0 Bft) O 90 10,9 C 13,8 C 0,0 km/h (0 Bft)
09.07.2013 00:10 14,3 C 81 % 1027,4 hPa 0,0 l/m 0,2 km/h (0 Bft) NO 45 11,1 C 13,8 C 0,0 km/h (0 Bft)
09.07.2013 00:15 14,0 C 81 % 1027,4 hPa 0,0 l/m 0,2 km/h (0 Bft) NO 45 10,8 C 13,8 C 0,0 km/h (0 Bft)
09.07.2013 00:20 13,8 C 82 % 1027,4 hPa 0,0 l/m 0,0 km/h (0 Bft) NO 45 10,8 C 13,5 C 0,0 km/h (0 Bft)
09.07.2013 00:25 13,8 C 82 % 1027,3 hPa 0,0 l/m 0,0 km/h (0 Bft) N-NO 22 10,8 C 13,5 C 0,0 km/h (0 Bft)
09.07.2013 00:30 14,0 C 82 % 1027,3 hPa 0,0 l/m 0,0 km/h (0 Bft) W-NW 292 11,0 C 13,4 C 0,0 km/h (0 Bft)
09.07.2013 00:35 13,6 C 82 % 1027,3 hPa 0,0 l/m 0,0 km/h (0 Bft) N-NW 337 10,6 C 13,3 C 0,0 km/h (0 Bft)
09.07.2013 00:40 13,7 C 83 % 1027,3 hPa 0,0 l/m 0,0 km/h (0 Bft) NO 45 10,9 C 13,1 C 1,8 km/h (1 Bft)
09.07.2013 00:45 13,9 C 83 % 1027,2 hPa 0,0 l/m 0,0 km/h (0 Bft) NO 45 11,1 C 13,1 C 0,0 km/h (0 Bft)
09.07.2013 00:50 13,4 C 83 % 1027,2 hPa 0,0 l/m 0,0 km/h (0 Bft) NO 45 10,6 C 12,9 C 0,0 km/h (0 Bft)
09.07.2013 00:55 13,2 C 83 % 1027,2 hPa 0,0 l/m 0,0 km/h (0 Bft) NO 45 10,4 C 12,7 C 0,0 km/h (0 Bft)
09.07.2013 01:00 13,3 C 83 % 1027,2 hPa 0,0 l/m 0,0 km/h (0 Bft) NO 45 10,5 C 12,7 C 0,0 km/h (0 Bft)
09.07.2013 01:05 13,2 C 84 % 1027,2 hPa 0,0 l/m 0,0 km/h (0 Bft) N-NO 22 10,6 C 12,7 C 0,0 km/h (0 Bft)
09.07.2013 01:10 12,9 C 84 % 1027,2 hPa 0,0 l/m 0,0 km/h (0 Bft) NO 45 10,3 C 12,6 C 0,0 km/h (0 Bft)
09.07.2013 01:15 12,9 C 85 % 1027,2 hPa 0,0 l/m 0,0 km/h (0 Bft) NO 45 10,4 C 12,5 C 0,0 km/h (0 Bft)
09.07.2013 01:20 13,2 C 85 % 1027,2 hPa 0,0 l/m 0,6 km/h (0 Bft) NO 45 10,7 C 12,4 C 3,2 km/h (1 Bft)
09.07.2013 01:25 13,2 C 85 % 1027,1 hPa 0,0 l/m 0,8 km/h (0 Bft) NO 45 10,7 C 12,5 C 0,0 km/h (0 Bft)
09.07.2013 01:30 13,6 C 85 % 1027,1 hPa 0,0 l/m 1,8 km/h (1 Bft) NO 45 11,1 C 12,5 C 4,5 km/h (1 Bft)
09.07.2013 01:35 13,7 C 85 % 1027,1 hPa 0,0 l/m 2,4 km/h (1 Bft) NO 45 11,2 C 12,8 C 2,6 km/h (1 Bft)
09.07.2013 01:40 12,9 C 85 % 1027,1 hPa 0,0 l/m 1,6 km/h (1 Bft) N-NO 22 10,4 C 12,7 C 0,0 km/h (0 Bft)
09.07.2013 01:45 12,7 C 85 % 1027,2 hPa 0,0 l/m 0,6 km/h (0 Bft) NO 45 10,2 C 12,4 C 2,7 km/h (1 Bft)
09.07.2013 01:50 13,1 C 85 % 1027,2 hPa 0,0 l/m 1,4 km/h (1 Bft) NO 45 10,6 C 12,4 C 0,0 km/h (0 Bft)
09.07.2013 01:55 12,9 C 86 % 1027,2 hPa 0,0 l/m 1,3 km/h (1 Bft) NO 45 10,6 C 12,4 C 0,0 km/h (0 Bft)
09.07.2013 02:00 12,6 C 86 % 1027,2 hPa 0,0 l/m 0,0 km/h (0 Bft) NO 45 10,3 C 12,3 C 0,0 km/h (0 Bft)
09.07.2013 02:05 12,3 C 86 % 1026,8 hPa 0,0 l/m 0,2 km/h (0 Bft) NO 45 10,0 C 12,1 C 1,8 km/h (1 Bft)
09.07.2013 02:10 12,3 C 86 % 1026,8 hPa 0,0 l/m 0,2 km/h (0 Bft) NO 45 10,0 C 11,9 C 0,0 km/h (0 Bft)
09.07.2013 02:15 12,3 C 86 % 1026,8 hPa 0,0 l/m 0,2 km/h (0 Bft) N-NO 22 10,0 C 11,9 C 0,0 km/h (0 Bft)
09.07.2013 02:20 12,1 C 87 % 1026,8 hPa 0,0 l/m 0,3 km/h (0 Bft) NO 45 10,0 C 11,8 C 2,9 km/h (1 Bft)
09.07.2013 02:25 12,2 C 87 % 1026,8 hPa 0,0 l/m 0,6 km/h (0 Bft) N-NO 22 10,1 C 11,7 C 2,4 km/h (1 Bft)
09.07.2013 02:30 12,3 C 88 % 1026,8 hPa 0,0 l/m 0,6 km/h (0 Bft) NO 45 10,4 C 11,8 C 0,0 km/h (0 Bft)
09.07.2013 02:35 12,0 C 87 % 1026,8 hPa 0,0 l/m 0,2 km/h (0 Bft) NO 45 9,9 C 11,8 C 0,0 km/h (0 Bft)
09.07.2013 02:40 12,0 C 88 % 1026,8 hPa 0,0 l/m 0,0 km/h (0 Bft) NO 45 10,1 C 11,6 C 0,0 km/h (0 Bft)
09.07.2013 02:45 12,0 C 88 % 1026,5 hPa 0,0 l/m 0,0 km/h (0 Bft) NO 45 10,1 C 11,5 C 0,0 km/h (0 Bft)
09.07.2013 02:50 12,1 C 88 % 1026,5 hPa 0,0 l/m 0,0 km/h (0 Bft) NO 45 10,2 C 11,5 C 1,6 km/h (1 Bft)
09.07.2013 02:55 12,2 C 88 % 1026,5 hPa 0,0 l/m 0,2 km/h (0 Bft) NO 45 10,3 C 11,6 C 0,0 km/h (0 Bft)
09.07.2013 03:00 12,3 C 88 % 1026,5 hPa 0,0 l/m 0,2 km/h (0 Bft) NO 45 10,4 C 11,6 C 0,0 km/h (0 Bft)
09.07.2013 03:05 12,1 C 88 % 1026,4 hPa 0,0 l/m 0,0 km/h (0 Bft) NO 45 10,2 C 11,6 C 0,0 km/h (0 Bft)
09.07.2013 03:10 11,6 C 88 % 1026,4 hPa 0,0 l/m 0,0 km/h (0 Bft) NO 45 9,7 C 11,4 C 0,0 km/h (0 Bft)
09.07.2013 03:15 11,5 C 88 % 1026,4 hPa 0,0 l/m 0,0 km/h (0 Bft) N-NO 22 9,6 C 11,2 C 0,0 km/h (0 Bft)
09.07.2013 03:20 11,3 C 88 % 1026,4 hPa 0,0 l/m 0,0 km/h (0 Bft) NO 45 9,4 C 11,1 C 0,0 km/h (0 Bft)
09.07.2013 03:25 11,2 C 88 % 1026,2 hPa 0,0 l/m 0,0 km/h (0 Bft) N-NO 22 9,3 C 10,9 C 0,0 km/h (0 Bft)
09.07.2013 03:30 11,2 C 88 % 1026,2 hPa 0,0 l/m 0,0 km/h (0 Bft) NO 45 9,3 C 10,9 C 0,0 km/h (0 Bft)
09.07.2013 03:35 11,1 C 88 % 1026,2 hPa 0,0 l/m 0,0 km/h (0 Bft) NO 45 9,2 C 10,8 C 0,0 km/h (0 Bft)
09.07.2013 03:40 11,2 C 89 % 1026,2 hPa 0,0 l/m 0,0 km/h (0 Bft) N-NO 22 9,5 C 10,8 C 0,0 km/h (0 Bft)
09.07.2013 03:45 11,2 C 89 % 1025,8 hPa 0,0 l/m 0,0 km/h (0 Bft) NO 45 9,5 C 10,8 C 0,0 km/h (0 Bft)
09.07.2013 03:50 11,2 C 89 % 1025,8 hPa 0,0 l/m 0,0 km/h (0 Bft) N-NO 22 9,5 C 10,7 C 0,0 km/h (0 Bft)
09.07.2013 03:55 11,1 C 89 % 1025,8 hPa 0,0 l/m 0,0 km/h (0 Bft) NO 45 9,4 C 10,8 C 0,0 km/h (0 Bft)
09.07.2013 04:00 11,5 C 89 % 1025,8 hPa 0,0 l/m 0,3 km/h (0 Bft) NO 45 9,8 C 10,8 C 1,6 km/h (1 Bft)
09.07.2013 04:05 11,7 C 90 % 1025,9 hPa 0,0 l/m 0,8 km/h (0 Bft) N-NO 22 10,1 C 11,0 C 0,0 km/h (0 Bft)
09.07.2013 04:10 11,3 C 89 % 1025,9 hPa 0,0 l/m 0,6 km/h (0 Bft) NO 45 9,6 C 10,9 C 0,0 km/h (0 Bft)
09.07.2013 04:15 11,2 C 89 % 1025,9 hPa 0,0 l/m 0,0 km/h (0 Bft) NO 45 9,5 C 10,8 C 0,0 km/h (0 Bft)
09.07.2013 04:20 11,3 C 90 % 1025,9 hPa 0,0 l/m 0,0 km/h (0 Bft) N-NO 22 9,7 C 10,7 C 0,0 km/h (0 Bft)
09.07.2013 04:25 11,1 C 89 % 1025,8 hPa 0,0 l/m 0,0 km/h (0 Bft) NO 45 9,4 C 10,7 C 0,0 km/h (0 Bft)
09.07.2013 04:30 10,8 C 90 % 1025,8 hPa 0,0 l/m 0,0 km/h (0 Bft) NO 45 9,2 C 10,6 C 0,0 km/h (0 Bft)
09.07.2013 04:35 10,8 C 90 % 1025,8 hPa 0,0 l/m 0,0 km/h (0 Bft) NO 45 9,2 C 10,5 C 0,0 km/h (0 Bft)
09.07.2013 04:40 10,7 C 90 % 1025,8 hPa 0,0 l/m 0,0 km/h (0 Bft) NO 45 9,1 C 10,5 C 0,0 km/h (0 Bft)
09.07.2013 04:45 10,7 C 90 % 1025,8 hPa 0,0 l/m 0,0 km/h (0 Bft) N-NO 22 9,1 C 10,4 C 0,0 km/h (0 Bft)
09.07.2013 04:50 10,6 C 90 % 1025,8 hPa 0,0 l/m 0,0 km/h (0 Bft) N-NO 22 9,0 C 10,4 C 0,0 km/h (0 Bft)
09.07.2013 04:55 10,5 C 90 % 1025,8 hPa 0,0 l/m 0,0 km/h (0 Bft) NO 45 8,9 C 10,4 C 0,0 km/h (0 Bft)
09.07.2013 05:00 10,5 C 90 % 1025,8 hPa 0,0 l/m 0,0 km/h (0 Bft) NO 45 8,9 C 10,3 C 0,0 km/h (0 Bft)
09.07.2013 05:05 10,7 C 90 % 1025,6 hPa 0,0 l/m 0,0 km/h (0 Bft) NO 45 9,1 C 10,3 C 0,0 km/h (0 Bft)
09.07.2013 05:10 10,8 C 90 % 1025,6 hPa 0,0 l/m 0,0 km/h (0 Bft) NO 45 9,2 C 10,3 C 0,0 km/h (0 Bft)
09.07.2013 05:15 10,7 C 91 % 1025,6 hPa 0,0 l/m 0,0 km/h (0 Bft) NO 45 9,3 C 10,4 C 0,0 km/h (0 Bft)
09.07.2013 05:20 10,6 C 91 % 1025,6 hPa 0,0 l/m 0,0 km/h (0 Bft) NO 45 9,2 C 10,3 C 0,0 km/h (0 Bft)
09.07.2013 05:25 10,5 C 91 % 1025,5 hPa 0,0 l/m 0,0 km/h (0 Bft) NO 45 9,1 C 10,4 C 0,0 km/h (0 Bft)
09.07.2013 05:30 10,5 C 91 % 1025,5 hPa 0,0 l/m 0,0 km/h (0 Bft) NO 45 9,1 C 10,4 C 0,0 km/h (0 Bft)
09.07.2013 05:35 10,6 C 91 % 1025,5 hPa 0,0 l/m 0,0 km/h (0 Bft) N-NO 22 9,2 C 10,4 C 0,0 km/h (0 Bft)
09.07.2013 05:40 10,5 C 91 % 1025,5 hPa 0,0 l/m 0,0 km/h (0 Bft) NO 45 9,1 C 10,4 C 0,0 km/h (0 Bft)
09.07.2013 05:45 10,5 C 91 % 1025,3 hPa 0,0 l/m 0,0 km/h (0 Bft) NO 45 9,1 C 10,4 C 0,0 km/h (0 Bft)
09.07.2013 05:50 10,7 C 91 % 1025,3 hPa 0,0 l/m 0,0 km/h (0 Bft) NO 45 9,3 C 10,5 C 0,0 km/h (0 Bft)
09.07.2013 05:55 10,7 C 91 % 1025,3 hPa 0,0 l/m 0,0 km/h (0 Bft) NO 45 9,3 C 10,5 C 0,0 km/h (0 Bft)
09.07.2013 06:00 11,0 C 91 % 1025,3 hPa 0,0 l/m 0,0 km/h (0 Bft) NO 45 9,6 C 10,6 C 0,0 km/h (0 Bft)
09.07.2013 06:05 11,1 C 91 % 1025,2 hPa 0,0 l/m 0,0 km/h (0 Bft) N-NO 22 9,7 C 10,9 C 0,0 km/h (0 Bft)
09.07.2013 06:10 11,6 C 91 % 1025,2 hPa 0,0 l/m 0,0 km/h (0 Bft) NO 45 10,2 C 11,6 C 0,0 km/h (0 Bft)
09.07.2013 06:15 12,5 C 91 % 1025,2 hPa 0,0 l/m 0,0 km/h (0 Bft) N-NO 22 11,1 C 12,1 C 0,0 km/h (0 Bft)
09.07.2013 06:20 13,6 C 89 % 1025,2 hPa 0,0 l/m 0,0 km/h (0 Bft) NO 45 11,8 C 12,6 C 0,0 km/h (0 Bft)
09.07.2013 06:25 13,9 C 89 % 1025,2 hPa 0,0 l/m 0,0 km/h (0 Bft) NO 45 12,1 C 13,1 C 0,0 km/h (0 Bft)
09.07.2013 06:30 14,6 C 88 % 1025,2 hPa 0,0 l/m 0,0 km/h (0 Bft) N-NO 22 12,6 C 13,4 C 0,0 km/h (0 Bft)
09.07.2013 06:35 14,8 C 87 % 1025,2 hPa 0,0 l/m 0,0 km/h (0 Bft) NO 45 12,7 C 13,7 C 0,0 km/h (0 Bft)
09.07.2013 06:40 15,2 C 85 % 1025,2 hPa 0,0 l/m 0,0 km/h (0 Bft) NO 45 12,7 C 14,4 C 0,0 km/h (0 Bft)
09.07.2013 06:45 15,6 C 83 % 1025,1 hPa 0,0 l/m 0,0 km/h (0 Bft) N-NO 22 12,7 C 15,1 C 0,0 km/h (0 Bft)
09.07.2013 06:50 16,8 C 82 % 1025,1 hPa 0,0 l/m 0,0 km/h (0 Bft) NO 45 13,7 C 16,1 C 0,0 km/h (0 Bft)
09.07.2013 06:55 17,1 C 79 % 1025,1 hPa 0,0 l/m 0,0 km/h (0 Bft) NO 45 13,4 C 16,5 C 0,0 km/h (0 Bft)
09.07.2013 07:00 17,7 C 76 % 1025,1 hPa 0,0 l/m 0,2 km/h (0 Bft) NO 45 13,4 C 17,3 C 0,0 km/h (0 Bft)
09.07.2013 07:05 17,5 C 75 % 1025,2 hPa 0,0 l/m 0,6 km/h (0 Bft) N 360 13,0 C 17,5 C 2,9 km/h (1 Bft)
09.07.2013 07:10 17,8 C 73 % 1025,2 hPa 0,0 l/m 1,6 km/h (1 Bft) N 360 12,9 C 17,5 C 3,5 km/h (1 Bft)
09.07.2013 07:15 17,7 C 72 % 1025,2 hPa 0,0 l/m 1,6 km/h (1 Bft) N-NO 22 12,6 C 17,8 C 2,7 km/h (1 Bft)
09.07.2013 07:20 17,2 C 73 % 1025,2 hPa 0,0 l/m 1,1 km/h (1 Bft) N 360 12,3 C 17,6 C 2,7 km/h (1 Bft)
09.07.2013 07:25 16,7 C 74 % 1025,2 hPa 0,0 l/m 1,1 km/h (1 Bft) N-NO 22 12,0 C 17,0 C 0,0 km/h (0 Bft)
09.07.2013 07:30 16,9 C 74 % 1025,2 hPa 0,0 l/m 1,3 km/h (1 Bft) N 360 12,2 C 16,7 C 3,5 km/h (1 Bft)
09.07.2013 07:35 17,3 C 73 % 1025,2 hPa 0,0 l/m 1,4 km/h (1 Bft) N 360 12,4 C 16,8 C 2,3 km/h (1 Bft)
09.07.2013 07:40 18,3 C 72 % 1025,2 hPa 0,0 l/m 1,0 km/h (0 Bft) N 360 13,2 C 17,5 C 2,3 km/h (1 Bft)
09.07.2013 07:45 18,5 C 71 % 1025,1 hPa 0,0 l/m 1,1 km/h (1 Bft) N 360 13,1 C 17,9 C 2,7 km/h (1 Bft)
09.07.2013 07:50 18,5 C 70 % 1025,1 hPa 0,0 l/m 1,3 km/h (1 Bft) N-NO 22 12,9 C 18,2 C 2,1 km/h (1 Bft)
09.07.2013 07:55 17,9 C 70 % 1025,1 hPa 0,0 l/m 1,3 km/h (1 Bft) N-NO 22 12,3 C 18,1 C 0,0 km/h (0 Bft)
09.07.2013 08:00 18,8 C 70 % 1025,1 hPa 0,0 l/m 1,3 km/h (1 Bft) N-NO 22 13,2 C 18,2 C 0,0 km/h (0 Bft)
09.07.2013 08:05 20,5 C 69 % 1025,2 hPa 0,0 l/m 1,0 km/h (0 Bft) N 360 14,6 C 18,6 C 1,8 km/h (1 Bft)
09.07.2013 08:10 21,3 C 65 % 1025,2 hPa 0,0 l/m 0,8 km/h (0 Bft) O-NO 67 14,4 C 19,7 C 2,6 km/h (1 Bft)
09.07.2013 08:15 21,3 C 59 % 1025,2 hPa 0,0 l/m 1,1 km/h (1 Bft) N 360 13,0 C 20,5 C 3,4 km/h (1 Bft)
09.07.2013 08:20 21,2 C 61 % 1025,2 hPa 0,0 l/m 1,4 km/h (1 Bft) N 360 13,4 C 21,2 C 5,8 km/h (2 Bft)
09.07.2013 08:25 21,7 C 61 % 1025,3 hPa 0,0 l/m 2,4 km/h (1 Bft) N 360 13,8 C 21,0 C 5,3 km/h (1 Bft)
09.07.2013 08:30 22,2 C 59 % 1025,3 hPa 0,0 l/m 2,6 km/h (1 Bft) N-NW 337 13,8 C 21,2 C 0,0 km/h (0 Bft)
09.07.2013 08:35 21,5 C 59 % 1025,3 hPa 0,0 l/m 1,9 km/h (1 Bft) N 360 13,1 C 21,6 C 2,9 km/h (1 Bft)
09.07.2013 08:40 22,2 C 59 % 1025,3 hPa 0,0 l/m 2,1 km/h (1 Bft) N 360 13,8 C 20,9 C 3,1 km/h (1 Bft)
09.07.2013 08:45 22,5 C 57 % 1025,2 hPa 0,0 l/m 2,1 km/h (1 Bft) N-NO 22 13,5 C 21,5 C 2,3 km/h (1 Bft)
09.07.2013 08:50 21,9 C 59 % 1025,2 hPa 0,0 l/m 1,6 km/h (1 Bft) N-NO 22 13,5 C 22,1 C 0,0 km/h (0 Bft)
09.07.2013 08:55 22,5 C 58 % 1025,2 hPa 0,0 l/m 1,6 km/h (1 Bft) N 360 13,8 C 22,6 C 2,4 km/h (1 Bft)
09.07.2013 09:00 23,9 C 57 % 1025,2 hPa 0,0 l/m 1,1 km/h (1 Bft) N-NO 22 14,9 C 23,1 C 0,0 km/h (0 Bft)
09.07.2013 09:05 23,5 C 56 % 1025,3 hPa 0,0 l/m 0,8 km/h (0 Bft) N 360 14,2 C 23,8 C 3,1 km/h (1 Bft)
09.07.2013 09:10 22,8 C 55 % 1025,3 hPa 0,0 l/m 0,6 km/h (0 Bft) NO 45 13,3 C 24,6 C 0,0 km/h (0 Bft)
09.07.2013 09:15 23,8 C 54 % 1025,3 hPa 0,0 l/m 1,3 km/h (1 Bft) W 270 13,9 C 24,7 C 2,7 km/h (1 Bft)
09.07.2013 09:20 23,5 C 54 % 1025,3 hPa 0,0 l/m 2,1 km/h (1 Bft) NO 45 13,6 C 24,6 C 2,3 km/h (1 Bft)
09.07.2013 09:25 24,3 C 55 % 1025,9 hPa 0,0 l/m 1,9 km/h (1 Bft) W 270 14,7 C 25,0 C 2,1 km/h (1 Bft)
09.07.2013 09:30 24,2 C 51 % 1025,9 hPa 0,0 l/m 2,3 km/h (1 Bft) NO 45 13,4 C 24,8 C 6,4 km/h (2 Bft)
09.07.2013 09:35 23,6 C 54 % 1025,9 hPa 0,0 l/m 3,1 km/h (1 Bft) W 270 13,7 C 24,6 C 3,9 km/h (1 Bft)
09.07.2013 09:40 23,6 C 53 % 1025,9 hPa 0,0 l/m 3,2 km/h (1 Bft) W 270 13,4 C 24,4 C 3,5 km/h (1 Bft)
09.07.2013 09:45 23,4 C 53 % 1026,0 hPa 0,0 l/m 3,4 km/h (1 Bft) W-NW 292 13,3 C 24,2 C 3,2 km/h (1 Bft)
09.07.2013 09:50 23,7 C 53 % 1026,0 hPa 0,0 l/m 4,0 km/h (1 Bft) W-NW 292 13,5 C 24,0 C 8,5 km/h (2 Bft)
09.07.2013 09:55 23,5 C 53 % 1026,0 hPa 0,0 l/m 3,9 km/h (1 Bft) W-NW 292 13,4 C 24,0 C 1,8 km/h (1 Bft)
09.07.2013 10:00 24,0 C 51 % 1026,0 hPa 0,0 l/m 3,9 km/h (1 Bft) N-NW 337 13,2 C 24,0 C 4,8 km/h (1 Bft)
09.07.2013 10:05 23,7 C 53 % 1025,9 hPa 0,0 l/m 4,2 km/h (1 Bft) N-NW 337 13,5 C 23,8 C 4,5 km/h (1 Bft)
09.07.2013 10:10 23,8 C 53 % 1025,9 hPa 0,0 l/m 4,0 km/h (1 Bft) N-NW 337 13,6 C 24,3 C 5,0 km/h (1 Bft)
09.07.2013 10:15 23,8 C 54 % 1025,9 hPa 0,0 l/m 3,2 km/h (1 Bft) NO 45 13,9 C 24,7 C 5,8 km/h (2 Bft)
09.07.2013 10:20 23,7 C 52 % 1025,9 hPa 0,0 l/m 3,1 km/h (1 Bft) N-NO 22 13,2 C 25,1 C 3,7 km/h (1 Bft)
09.07.2013 10:25 23,5 C 54 % 1025,9 hPa 0,0 l/m 2,9 km/h (1 Bft) NW 315 13,6 C 25,3 C 0,0 km/h (0 Bft)
09.07.2013 10:30 24,2 C 51 % 1025,9 hPa 0,0 l/m 2,7 km/h (1 Bft) N 360 13,4 C 25,7 C 6,8 km/h (2 Bft)
09.07.2013 10:35 24,1 C 52 % 1025,9 hPa 0,0 l/m 3,2 km/h (1 Bft) N 360 13,6 C 25,7 C 4,5 km/h (1 Bft)
09.07.2013 10:40 24,2 C 50 % 1025,9 hPa 0,0 l/m 4,0 km/h (1 Bft) SO 135 13,1 C 25,3 C 4,8 km/h (1 Bft)
09.07.2013 10:45 23,9 C 50 % 1025,8 hPa 0,0 l/m 4,0 km/h (1 Bft) W 270 12,8 C 25,1 C 2,9 km/h (1 Bft)
09.07.2013 10:50 24,4 C 52 % 1025,8 hPa 0,0 l/m 4,0 km/h (1 Bft) NW 315 13,9 C 25,0 C 10,0 km/h (2 Bft)
09.07.2013 10:55 23,9 C 51 % 1025,8 hPa 0,0 l/m 3,9 km/h (1 Bft) W-NW 292 13,1 C 25,3 C 4,3 km/h (1 Bft)
09.07.2013 11:00 24,0 C 52 % 1025,8 hPa 0,0 l/m 4,2 km/h (1 Bft) N-NW 337 13,5 C 24,5 C 5,6 km/h (1 Bft)
09.07.2013 11:05 24,0 C 51 % 1026,0 hPa 0,0 l/m 4,7 km/h (1 Bft) N-NW 337 13,2 C 24,6 C 5,8 km/h (2 Bft)
09.07.2013 11:10 24,2 C 52 % 1026,0 hPa 0,0 l/m 4,5 km/h (1 Bft) NW 315 13,7 C 24,6 C 13,0 km/h (3 Bft)
09.07.2013 11:15 24,2 C 52 % 1026,0 hPa 0,0 l/m 4,7 km/h (1 Bft) W 270 13,7 C 24,6 C 5,1 km/h (1 Bft)
09.07.2013 11:20 24,1 C 52 % 1026,0 hPa 0,0 l/m 5,5 km/h (1 Bft) W-NW 292 13,6 C 24,3 C 4,5 km/h (1 Bft)
09.07.2013 11:25 24,6 C 53 % 1026,1 hPa 0,0 l/m 5,1 km/h (1 Bft) W-NW 292 14,4 C 24,6 C 3,4 km/h (1 Bft)
09.07.2013 11:30 24,7 C 51 % 1026,1 hPa 0,0 l/m 4,0 km/h (1 Bft) N 360 13,9 C 25,1 C 5,1 km/h (1 Bft)
09.07.2013 11:35 24,0 C 51 % 1026,1 hPa 0,0 l/m 4,3 km/h (1 Bft) W-NW 292 13,2 C 25,1 C 8,4 km/h (2 Bft)
09.07.2013 11:40 24,9 C 53 % 1026,1 hPa 0,0 l/m 5,5 km/h (1 Bft) NW 315 14,6 C 24,8 C 6,1 km/h (2 Bft)
09.07.2013 11:45 24,9 C 52 % 1026,1 hPa 0,0 l/m 5,3 km/h (1 Bft) W-NW 292 14,4 C 24,9 C 6,8 km/h (2 Bft)
09.07.2013 11:50 24,9 C 50 % 1026,1 hPa 0,0 l/m 4,2 km/h (1 Bft) S-SW 202 13,7 C 25,1 C 10,3 km/h (2 Bft)
09.07.2013 11:55 25,4 C 51 % 1026,1 hPa 0,0 l/m 3,7 km/h (1 Bft) W-NW 292 14,5 C 25,6 C 7,7 km/h (2 Bft)
09.07.2013 12:00 25,0 C 51 % 1026,1 hPa 0,0 l/m 3,7 km/h (1 Bft) W-NW 292 14,1 C 25,9 C 5,8 km/h (2 Bft)
09.07.2013 12:05 25,5 C 51 % 1026,2 hPa 0,0 l/m 5,0 km/h (1 Bft) N 360 14,6 C 25,6 C 7,7 km/h (2 Bft)
09.07.2013 12:10 24,5 C 53 % 1026,2 hPa 0,0 l/m 6,1 km/h (2 Bft) W-NW 292 14,3 C 25,4 C 8,5 km/h (2 Bft)
09.07.2013 12:15 24,8 C 52 % 1026,2 hPa 0,0 l/m 5,0 km/h (1 Bft) N-NW 337 14,3 C 25,4 C 2,7 km/h (1 Bft)
09.07.2013 12:20 25,0 C 52 % 1026,2 hPa 0,0 l/m 4,7 km/h (1 Bft) W-NW 292 14,4 C 25,6 C 6,0 km/h (2 Bft)
09.07.2013 12:25 25,0 C 53 % 1026,1 hPa 0,0 l/m 4,7 km/h (1 Bft) N 360 14,7 C 25,6 C 4,3 km/h (1 Bft)
09.07.2013 12:30 24,6 C 51 % 1026,1 hPa 0,0 l/m 4,7 km/h (1 Bft) O 90 13,8 C 25,8 C 3,9 km/h (1 Bft)
09.07.2013 12:35 24,7 C 54 % 1026,1 hPa 0,0 l/m 4,3 km/h (1 Bft) W-SW 247 14,8 C 26,1 C 3,4 km/h (1 Bft)
09.07.2013 12:40 24,7 C 52 % 1026,1 hPa 0,0 l/m 5,5 km/h (1 Bft) N-NW 337 14,2 C 25,8 C 14,8 km/h (3 Bft)
09.07.2013 12:45 25,2 C 52 % 1026,2 hPa 0,0 l/m 5,5 km/h (1 Bft) W-NW 292 14,6 C 25,9 C 5,6 km/h (1 Bft)
09.07.2013 12:50 25,1 C 52 % 1026,2 hPa 0,0 l/m 4,7 km/h (1 Bft) N 360 14,5 C 26,4 C 6,6 km/h (2 Bft)
09.07.2013 12:55 25,2 C 52 % 1026,2 hPa 0,0 l/m 4,3 km/h (1 Bft) W 270 14,6 C 26,6 C 7,6 km/h (2 Bft)
09.07.2013 13:00 25,4 C 49 % 1026,2 hPa 0,0 l/m 5,0 km/h (1 Bft) NW 315 13,9 C 26,4 C 5,5 km/h (1 Bft)
09.07.2013 13:05 25,1 C 52 % 1025,6 hPa 0,0 l/m 5,3 km/h (1 Bft) NW 315 14,5 C 26,3 C 7,7 km/h (2 Bft)
09.07.2013 13:10 24,0 C 53 % 1025,6 hPa 0,0 l/m 5,0 km/h (1 Bft) N-NO 22 13,8 C 26,0 C 5,3 km/h (1 Bft)
09.07.2013 13:15 24,1 C 55 % 1025,6 hPa 0,0 l/m 4,7 km/h (1 Bft) W-NW 292 14,5 C 25,7 C 4,5 km/h (1 Bft)
09.07.2013 13:20 23,8 C 57 % 1025,6 hPa 0,0 l/m 5,3 km/h (1 Bft) W-NW 292 14,8 C 25,6 C 7,2 km/h (2 Bft)
09.07.2013 13:25 24,2 C 54 % 1025,9 hPa 0,0 l/m 6,1 km/h (2 Bft) N-NW 337 14,3 C 25,5 C 6,6 km/h (2 Bft)
09.07.2013 13:30 24,6 C 55 % 1025,9 hPa 0,0 l/m 5,6 km/h (1 Bft) SW 225 14,9 C 25,8 C 3,5 km/h (1 Bft)
09.07.2013 13:35 24,1 C 54 % 1025,9 hPa 0,0 l/m 5,1 km/h (1 Bft) NO 45 14,2 C 25,7 C 8,7 km/h (2 Bft)
09.07.2013 13:40 25,2 C 52 % 1025,9 hPa 0,0 l/m 4,7 km/h (1 Bft) W-NW 292 14,6 C 26,0 C 3,7 km/h (1 Bft)
09.07.2013 13:45 25,5 C 52 % 1025,8 hPa 0,0 l/m 4,7 km/h (1 Bft) NW 315 14,9 C 26,5 C 4,2 km/h (1 Bft)
09.07.2013 13:50 23,5 C 57 % 1025,8 hPa 0,0 l/m 5,0 km/h (1 Bft) N-NW 337 14,5 C 25,5 C 4,0 km/h (1 Bft)
09.07.2013 13:55 24,7 C 54 % 1025,8 hPa 0,0 l/m 4,8 km/h (1 Bft) N-NW 337 14,8 C 25,7 C 7,7 km/h (2 Bft)
09.07.2013 14:00 24,6 C 55 % 1025,8 hPa 0,0 l/m 4,3 km/h (1 Bft) W-NW 292 14,9 C 25,7 C 4,3 km/h (1 Bft)
09.07.2013 14:05 25,5 C 53 % 1025,6 hPa 0,0 l/m 4,0 km/h (1 Bft) NO 45 15,2 C 26,6 C 6,8 km/h (2 Bft)
09.07.2013 14:10 24,1 C 55 % 1025,6 hPa 0,0 l/m 3,5 km/h (1 Bft) NO 45 14,5 C 26,7 C 5,5 km/h (1 Bft)
09.07.2013 14:15 23,5 C 57 % 1025,6 hPa 0,0 l/m 4,0 km/h (1 Bft) N-NW 337 14,5 C 26,3 C 4,8 km/h (1 Bft)
09.07.2013 14:20 24,7 C 53 % 1025,6 hPa 0,0 l/m 4,2 km/h (1 Bft) N-NW 337 14,5 C 26,6 C 7,6 km/h (2 Bft)
09.07.2013 14:25 24,2 C 55 % 1025,4 hPa 0,0 l/m 4,8 km/h (1 Bft) NW 315 14,6 C 26,5 C 5,1 km/h (1 Bft)
09.07.2013 14:30 26,1 C 50 % 1025,4 hPa 0,0 l/m 5,5 km/h (1 Bft) W-NW 292 14,8 C 27,1 C 4,2 km/h (1 Bft)
09.07.2013 14:35 26,3 C 48 % 1025,4 hPa 0,0 l/m 4,2 km/h (1 Bft) W-NW 292 14,4 C 28,3 C 3,9 km/h (1 Bft)
09.07.2013 14:40 27,0 C 47 % 1025,4 hPa 0,0 l/m 4,2 km/h (1 Bft) W-NW 292 14,7 C 29,3 C 6,6 km/h (2 Bft)
09.07.2013 14:45 25,8 C 48 % 1025,2 hPa 0,0 l/m 5,3 km/h (1 Bft) N 360 13,9 C 28,8 C 12,9 km/h (3 Bft)
09.07.2013 14:50 25,6 C 49 % 1025,2 hPa 0,0 l/m 5,1 km/h (1 Bft) W 270 14,1 C 28,2 C 4,2 km/h (1 Bft)
09.07.2013 14:55 25,9 C 48 % 1025,2 hPa 0,0 l/m 4,7 km/h (1 Bft) W-NW 292 14,0 C 28,1 C 4,0 km/h (1 Bft)
09.07.2013 15:00 24,4 C 53 % 1025,2 hPa 0,0 l/m 4,2 km/h (1 Bft) W-NW 292 14,2 C 27,8 C 6,0 km/h (2 Bft)
09.07.2013 15:05 24,0 C 55 % 1025,1 hPa 0,0 l/m 4,2 km/h (1 Bft) NW 315 14,4 C 26,7 C 3,7 km/h (1 Bft)
09.07.2013 15:10 24,4 C 54 % 1025,1 hPa 0,0 l/m 4,2 km/h (1 Bft) W-NW 292 14,5 C 26,0 C 4,5 km/h (1 Bft)
09.07.2013 15:15 24,3 C 52 % 1025,1 hPa 0,0 l/m 4,7 km/h (1 Bft) N-NW 337 13,8 C 26,2 C 9,3 km/h (2 Bft)
09.07.2013 15:20 23,8 C 55 % 1025,1 hPa 0,0 l/m 5,0 km/h (1 Bft) N-NW 337 14,2 C 25,5 C 1,6 km/h (1 Bft)
09.07.2013 15:25 23,8 C 55 % 1025,2 hPa 0,0 l/m 3,9 km/h (1 Bft) N 360 14,2 C 25,5 C 2,6 km/h (1 Bft)
09.07.2013 15:30 24,0 C 55 % 1025,2 hPa 0,0 l/m 1,4 km/h (1 Bft) W-NW 292 14,4 C 25,9 C 1,9 km/h (1 Bft)
09.07.2013 15:35 24,0 C 57 % 1025,2 hPa 0,0 l/m 1,6 km/h (1 Bft) NO 45 14,9 C 26,3 C 3,4 km/h (1 Bft)
09.07.2013 15:40 23,7 C 57 % 1025,2 hPa 0,0 l/m 3,4 km/h (1 Bft) N 360 14,7 C 25,8 C 5,5 km/h (1 Bft)
09.07.2013 15:45 23,9 C 56 % 1025,1 hPa 0,0 l/m 3,9 km/h (1 Bft) S 180 14,6 C 25,5 C 2,3 km/h (1 Bft)
09.07.2013 15:50 24,7 C 52 % 1025,1 hPa 0,0 l/m 2,7 km/h (1 Bft) N-NO 22 14,2 C 26,4 C 1,8 km/h (1 Bft)
09.07.2013 15:55 25,5 C 51 % 1025,1 hPa 0,0 l/m 1,9 km/h (1 Bft) S 180 14,6 C 27,7 C 0,0 km/h (0 Bft)
09.07.2013 16:00 25,8 C 49 % 1025,1 hPa 0,0 l/m 2,3 km/h (1 Bft) W-NW 292 14,3 C 29,4 C 4,8 km/h (1 Bft)
09.07.2013 16:05 26,0 C 49 % 1025,0 hPa 0,0 l/m 3,2 km/h (1 Bft) SO 135 14,4 C 29,4 C 4,3 km/h (1 Bft)
09.07.2013 16:10 25,5 C 49 % 1025,0 hPa 0,0 l/m 3,9 km/h (1 Bft) N-NO 22 14,0 C 29,5 C 2,7 km/h (1 Bft)
09.07.2013 16:15 25,3 C 50 % 1025,0 hPa 0,0 l/m 3,7 km/h (1 Bft) W-NW 292 14,1 C 29,4 C 6,1 km/h (2 Bft)
09.07.2013 16:20 25,7 C 50 % 1025,0 hPa 0,0 l/m 4,0 km/h (1 Bft) SO 135 14,5 C 28,6 C 0,0 km/h (0 Bft)
09.07.2013 16:25 25,8 C 49 % 1025,1 hPa 0,0 l/m 4,3 km/h (1 Bft) N 360 14,3 C 29,5 C 8,0 km/h (2 Bft)
09.07.2013 16:30 24,2 C 53 % 1025,1 hPa 0,0 l/m 3,5 km/h (1 Bft) NO 45 14,0 C 28,4 C 9,3 km/h (2 Bft)
09.07.2013 16:35 23,9 C 53 % 1025,1 hPa 0,0 l/m 3,7 km/h (1 Bft) NO 45 13,7 C 27,1 C 0,0 km/h (0 Bft)
09.07.2013 16:40 23,5 C 56 % 1025,1 hPa 0,0 l/m 3,1 km/h (1 Bft) W 270 14,2 C 26,0 C 3,1 km/h (1 Bft)
09.07.2013 16:45 23,3 C 55 % 1024,4 hPa 0,0 l/m 2,1 km/h (1 Bft) N-NW 337 13,7 C 25,5 C 2,9 km/h (1 Bft)
09.07.2013 16:50 23,0 C 57 % 1024,4 hPa 0,0 l/m 1,8 km/h (1 Bft) NW 315 14,0 C 24,8 C 2,7 km/h (1 Bft)
09.07.2013 16:55 22,8 C 58 % 1024,4 hPa 0,0 l/m 1,3 km/h (1 Bft) W 270 14,1 C 24,5 C 0,0 km/h (0 Bft)
09.07.2013 17:00 22,4 C 61 % 1024,4 hPa 0,0 l/m 0,5 km/h (0 Bft) N-NW 337 14,5 C 24,3 C 1,8 km/h (1 Bft)
09.07.2013 17:05 22,1 C 61 % 1024,1 hPa 0,0 l/m 0,5 km/h (0 Bft) O-NO 67 14,2 C 24,3 C 2,6 km/h (1 Bft)
09.07.2013 17:10 21,9 C 63 % 1024,1 hPa 0,0 l/m 2,4 km/h (1 Bft) O-SO 112 14,5 C 23,7 C 2,9 km/h (1 Bft)
09.07.2013 17:15 21,8 C 63 % 1024,1 hPa 0,0 l/m 2,6 km/h (1 Bft) NO 45 14,4 C 23,5 C 3,4 km/h (1 Bft)
09.07.2013 17:20 21,7 C 65 % 1024,1 hPa 0,0 l/m 1,9 km/h (1 Bft) O-NO 67 14,8 C 23,2 C 2,1 km/h (1 Bft)
09.07.2013 17:25 21,7 C 65 % 1023,8 hPa 0,0 l/m 1,9 km/h (1 Bft) NO 45 14,8 C 23,1 C 3,7 km/h (1 Bft)
09.07.2013 17:30 21,8 C 66 % 1023,8 hPa 0,0 l/m 1,0 km/h (0 Bft) NO 45 15,2 C 23,2 C 0,0 km/h (0 Bft)
09.07.2013 17:35 21,9 C 66 % 1023,8 hPa 0,0 l/m 0,5 km/h (0 Bft) NO 45 15,3 C 23,5 C 0,0 km/h (0 Bft)
09.07.2013 17:40 21,9 C 67 % 1023,8 hPa 0,0 l/m 0,2 km/h (0 Bft) NO 45 15,5 C 23,7 C 2,1 km/h (1 Bft)
09.07.2013 17:45 22,0 C 67 % 1023,6 hPa 0,0 l/m 0,2 km/h (0 Bft) N 360 15,6 C 23,8 C 1,6 km/h (1 Bft)
09.07.2013 17:50 22,2 C 65 % 1023,6 hPa 0,0 l/m 0,3 km/h (0 Bft) O 90 15,3 C 23,9 C 0,0 km/h (0 Bft)
09.07.2013 17:55 22,3 C 65 % 1023,6 hPa 0,0 l/m 0,2 km/h (0 Bft) N-NW 337 15,4 C 24,0 C 1,6 km/h (1 Bft)
09.07.2013 18:00 22,4 C 66 % 1023,6 hPa 0,0 l/m 0,0 km/h (0 Bft) NO 45 15,7 C 24,2 C 0,0 km/h (0 Bft)
09.07.2013 18:05 22,5 C 65 % 1023,8 hPa 0,0 l/m 0,0 km/h (0 Bft) O-NO 67 15,6 C 24,3 C 0,0 km/h (0 Bft)
09.07.2013 18:10 22,5 C 65 % 1023,8 hPa 0,0 l/m 0,0 km/h (0 Bft) NO 45 15,6 C 24,4 C 0,0 km/h (0 Bft)
09.07.2013 18:15 22,5 C 65 % 1023,8 hPa 0,0 l/m 0,0 km/h (0 Bft) O-NO 67 15,6 C 24,3 C 0,0 km/h (0 Bft)
09.07.2013 18:20 22,5 C 65 % 1023,8 hPa 0,0 l/m 0,0 km/h (0 Bft) O 90 15,6 C 24,4 C 0,0 km/h (0 Bft)
09.07.2013 18:25 22,4 C 65 % 1023,8 hPa 0,0 l/m 0,0 km/h (0 Bft) O-NO 67 15,5 C 24,4 C 0,0 km/h (0 Bft)
09.07.2013 18:30 22,3 C 65 % 1023,8 hPa 0,0 l/m 0,3 km/h (0 Bft) O 90 15,4 C 24,2 C 1,9 km/h (1 Bft)
09.07.2013 18:35 22,2 C 65 % 1023,8 hPa 0,0 l/m 0,5 km/h (0 Bft) NO 45 15,3 C 24,1 C 2,1 km/h (1 Bft)
09.07.2013 18:40 22,1 C 65 % 1023,8 hPa 0,0 l/m 0,3 km/h (0 Bft) O-NO 67 15,2 C 23,9 C 0,0 km/h (0 Bft)
09.07.2013 18:45 22,1 C 65 % 1023,5 hPa 0,0 l/m 0,6 km/h (0 Bft) O-SO 112 15,2 C 23,7 C 3,4 km/h (1 Bft)
09.07.2013 18:50 22,0 C 65 % 1023,5 hPa 0,0 l/m 1,1 km/h (1 Bft) NO 45 15,1 C 23,5 C 2,3 km/h (1 Bft)
09.07.2013 18:55 21,8 C 66 % 1023,5 hPa 0,0 l/m 1,6 km/h (1 Bft) N-NO 22 15,2 C 23,3 C 3,4 km/h (1 Bft)
09.07.2013 19:00 22,0 C 66 % 1023,5 hPa 0,0 l/m 1,0 km/h (0 Bft) O-NO 67 15,3 C 23,2 C 1,6 km/h (1 Bft)
09.07.2013 19:05 21,9 C 66 % 1023,4 hPa 0,0 l/m 0,6 km/h (0 Bft) NO 45 15,3 C 23,1 C 2,3 km/h (1 Bft)
09.07.2013 19:10 21,8 C 67 % 1023,4 hPa 0,0 l/m 0,5 km/h (0 Bft) O 90 15,4 C 23,0 C 1,8 km/h (1 Bft)
09.07.2013 19:15 21,8 C 66 % 1023,4 hPa 0,0 l/m 0,5 km/h (0 Bft) N 360 15,2 C 22,9 C 1,9 km/h (1 Bft)
09.07.2013 19:20 21,6 C 66 % 1023,4 hPa 0,0 l/m 0,5 km/h (0 Bft) NO 45 15,0 C 22,7 C 0,0 km/h (0 Bft)
09.07.2013 19:25 21,5 C 67 % 1023,2 hPa 0,0 l/m 0,3 km/h (0 Bft) NO 45 15,1 C 22,6 C 0,0 km/h (0 Bft)
09.07.2013 19:30 21,3 C 67 % 1023,2 hPa 0,0 l/m 0,3 km/h (0 Bft) N-NO 22 14,9 C 22,4 C 0,0 km/h (0 Bft)
09.07.2013 19:35 21,2 C 67 % 1023,2 hPa 0,0 l/m 0,6 km/h (0 Bft) O 90 14,8 C 22,3 C 2,1 km/h (1 Bft)
09.07.2013 19:40 21,1 C 67 % 1023,2 hPa 0,0 l/m 0,5 km/h (0 Bft) NO 45 14,7 C 22,0 C 0,0 km/h (0 Bft)
09.07.2013 19:45 21,0 C 67 % 1023,2 hPa 0,0 l/m 0,8 km/h (0 Bft) O-NO 67 14,6 C 21,9 C 2,6 km/h (1 Bft)
09.07.2013 19:50 21,0 C 67 % 1023,2 hPa 0,0 l/m 0,6 km/h (0 Bft) N 360 14,6 C 21,7 C 0,0 km/h (0 Bft)
09.07.2013 19:55 20,9 C 67 % 1023,2 hPa 0,0 l/m 0,6 km/h (0 Bft) W-SW 247 14,5 C 21,6 C 0,0 km/h (0 Bft)
09.07.2013 20:00 20,8 C 67 % 1023,2 hPa 0,0 l/m 0,6 km/h (0 Bft) N 360 14,4 C 21,4 C 0,0 km/h (0 Bft)
09.07.2013 20:05 20,8 C 67 % 1023,3 hPa 0,0 l/m 0,6 km/h (0 Bft) NO 45 14,4 C 21,3 C 1,9 km/h (1 Bft)
09.07.2013 20:10 20,7 C 68 % 1023,3 hPa 0,0 l/m 0,8 km/h (0 Bft) NO 45 14,6 C 21,1 C 0,0 km/h (0 Bft)
09.07.2013 20:15 20,6 C 68 % 1023,3 hPa 0,0 l/m 1,0 km/h (0 Bft) N-NO 22 14,5 C 21,0 C 1,8 km/h (1 Bft)
09.07.2013 20:20 20,5 C 69 % 1023,3 hPa 0,0 l/m 0,5 km/h (0 Bft) O 90 14,6 C 20,9 C 0,0 km/h (0 Bft)
09.07.2013 20:25 20,4 C 69 % 1023,2 hPa 0,0 l/m 0,3 km/h (0 Bft) NW 315 14,5 C 20,8 C 0,0 km/h (0 Bft)
09.07.2013 20:30 20,4 C 69 % 1023,2 hPa 0,0 l/m 0,3 km/h (0 Bft) O 90 14,5 C 20,7 C 0,0 km/h (0 Bft)
09.07.2013 20:35 20,4 C 69 % 1023,2 hPa 0,0 l/m 0,2 km/h (0 Bft) NO 45 14,5 C 20,7 C 0,0 km/h (0 Bft)
09.07.2013 20:40 20,3 C 69 % 1023,2 hPa 0,0 l/m 0,0 km/h (0 Bft) NO 45 14,4 C 21,1 C 0,0 km/h (0 Bft)
09.07.2013 20:45 20,2 C 69 % 1023,1 hPa 0,0 l/m 0,0 km/h (0 Bft) NO 45 14,3 C 21,1 C 0,0 km/h (0 Bft)
09.07.2013 20:50 20,1 C 69 % 1023,1 hPa 0,0 l/m 0,3 km/h (0 Bft) NO 45 14,2 C 20,8 C 0,0 km/h (0 Bft)
09.07.2013 20:55 20,0 C 69 % 1023,1 hPa 0,0 l/m 0,5 km/h (0 Bft) N-NO 22 14,1 C 20,5 C 0,0 km/h (0 Bft)
09.07.2013 21:00 19,7 C 70 % 1023,1 hPa 0,0 l/m 0,3 km/h (0 Bft) O-NO 67 14,1 C 20,1 C 0,0 km/h (0 Bft)
09.07.2013 21:05 19,5 C 70 % 1023,1 hPa 0,0 l/m 0,5 km/h (0 Bft) O-NO 67 13,9 C 19,9 C 0,0 km/h (0 Bft)
09.07.2013 21:10 19,3 C 70 % 1023,1 hPa 0,0 l/m 1,1 km/h (1 Bft) NO 45 13,7 C 19,4 C 2,4 km/h (1 Bft)
09.07.2013 21:15 19,2 C 71 % 1023,1 hPa 0,0 l/m 1,6 km/h (1 Bft) NO 45 13,8 C 19,2 C 2,7 km/h (1 Bft)
09.07.2013 21:20 18,9 C 72 % 1023,1 hPa 0,0 l/m 1,8 km/h (1 Bft) O 90 13,7 C 18,9 C 1,8 km/h (1 Bft)
09.07.2013 21:25 18,8 C 72 % 1023,1 hPa 0,0 l/m 1,6 km/h (1 Bft) O 90 13,6 C 18,6 C 1,8 km/h (1 Bft)
09.07.2013 21:30 18,6 C 73 % 1023,1 hPa 0,0 l/m 0,6 km/h (0 Bft) O 90 13,7 C 18,2 C 0,0 km/h (0 Bft)
09.07.2013 21:35 18,5 C 73 % 1023,1 hPa 0,0 l/m 0,5 km/h (0 Bft) NO 45 13,6 C 18,0 C 0,0 km/h (0 Bft)
09.07.2013 21:40 17,9 C 75 % 1023,1 hPa 0,0 l/m 0,3 km/h (0 Bft) O 90 13,4 C 17,6 C 0,0 km/h (0 Bft)
09.07.2013 21:45 17,8 C 75 % 1023,1 hPa 0,0 l/m 0,3 km/h (0 Bft) O 90 13,3 C 17,4 C 0,0 km/h (0 Bft)
09.07.2013 21:50 17,5 C 76 % 1023,1 hPa 0,0 l/m 1,0 km/h (0 Bft) O-NO 67 13,2 C 17,0 C 3,7 km/h (1 Bft)
09.07.2013 21:55 17,4 C 78 % 1023,1 hPa 0,0 l/m 2,4 km/h (1 Bft) NO 45 13,5 C 17,0 C 3,7 km/h (1 Bft)
09.07.2013 22:00 17,3 C 79 % 1023,1 hPa 0,0 l/m 3,2 km/h (1 Bft) NO 45 13,6 C 16,9 C 3,1 km/h (1 Bft)
09.07.2013 22:05 17,1 C 80 % 1023,3 hPa 0,0 l/m 2,6 km/h (1 Bft) O 90 13,6 C 16,8 C 2,7 km/h (1 Bft)
09.07.2013 22:10 16,9 C 81 % 1023,3 hPa 0,0 l/m 2,1 km/h (1 Bft) W 270 13,6 C 16,6 C 2,9 km/h (1 Bft)
09.07.2013 22:15 16,8 C 81 % 1023,3 hPa 0,0 l/m 2,6 km/h (1 Bft) O 90 13,5 C 16,6 C 4,7 km/h (1 Bft)
09.07.2013 22:20 16,7 C 82 % 1023,3 hPa 0,0 l/m 3,5 km/h (1 Bft) O-SO 112 13,6 C 16,6 C 2,9 km/h (1 Bft)
09.07.2013 22:25 16,5 C 81 % 1023,2 hPa 0,0 l/m 2,6 km/h (1 Bft) NO 45 13,2 C 16,4 C 0,0 km/h (0 Bft)
09.07.2013 22:30 16,3 C 82 % 1023,2 hPa 0,0 l/m 0,6 km/h (0 Bft) O 90 13,2 C 16,1 C 0,0 km/h (0 Bft)
09.07.2013 22:35 16,2 C 82 % 1023,2 hPa 0,0 l/m 0,2 km/h (0 Bft) O 90 13,1 C 16,0 C 0,0 km/h (0 Bft)
09.07.2013 22:40 15,9 C 83 % 1023,2 hPa 0,0 l/m 0,0 km/h (0 Bft) O 90 13,0 C 15,6 C 0,0 km/h (0 Bft)
09.07.2013 22:45 15,9 C 83 % 1022,9 hPa 0,0 l/m 0,0 km/h (0 Bft) O-SO 112 13,0 C 15,4 C 0,0 km/h (0 Bft)
09.07.2013 22:50 15,7 C 84 % 1022,9 hPa 0,0 l/m 0,2 km/h (0 Bft) O 90 13,0 C 15,2 C 2,6 km/h (1 Bft)
09.07.2013 22:55 15,9 C 84 % 1022,9 hPa 0,0 l/m 0,8 km/h (0 Bft) NO 45 13,2 C 15,2 C 1,8 km/h (1 Bft)
09.07.2013 23:00 15,7 C 85 % 1022,9 hPa 0,0 l/m 1,9 km/h (1 Bft) N-NO 22 13,2 C 15,1 C 1,6 km/h (1 Bft)
09.07.2013 23:05 15,9 C 85 % 1023,2 hPa 0,0 l/m 1,4 km/h (1 Bft) O-SO 112 13,4 C 15,1 C 0,0 km/h (0 Bft)
09.07.2013 23:10 15,6 C 85 % 1023,2 hPa 0,0 l/m 0,5 km/h (0 Bft) NO 45 13,1 C 14,8 C 2,7 km/h (1 Bft)
09.07.2013 23:15 15,8 C 86 % 1023,2 hPa 0,0 l/m 1,1 km/h (1 Bft) NO 45 13,5 C 14,8 C 2,1 km/h (1 Bft)
09.07.2013 23:20 15,7 C 86 % 1023,2 hPa 0,0 l/m 1,8 km/h (1 Bft) O 90 13,4 C 14,7 C 3,7 km/h (1 Bft)
09.07.2013 23:25 15,7 C 86 % 1023,1 hPa 0,0 l/m 1,4 km/h (1 Bft) O-SO 112 13,4 C 14,8 C 0,0 km/h (0 Bft)
09.07.2013 23:30 15,3 C 86 % 1023,1 hPa 0,0 l/m 1,0 km/h (0 Bft) O 90 13,0 C 14,6 C 1,6 km/h (1 Bft)
09.07.2013 23:35 15,2 C 86 % 1023,1 hPa 0,0 l/m 0,8 km/h (0 Bft) NO 45 12,9 C 14,5 C 3,4 km/h (1 Bft)
09.07.2013 23:40 15,2 C 87 % 1023,1 hPa 0,0 l/m 2,3 km/h (1 Bft) O-SO 112 13,0 C 14,6 C 2,4 km/h (1 Bft)
09.07.2013 23:45 15,2 C 87 % 1023,1 hPa 0,0 l/m 2,4 km/h (1 Bft) O 90 13,0 C 14,8 C 2,3 km/h (1 Bft)
09.07.2013 23:50 15,0 C 87 % 1023,1 hPa 0,0 l/m 1,0 km/h (0 Bft) O-SO 112 12,9 C 14,7 C 0,0 km/h (0 Bft)
09.07.2013 23:55 15,0 C 87 % 1023,1 hPa 0,0 l/m 0,5 km/h (0 Bft) O-SO 112 12,9 C 14,5 C 0,0 km/h (0 Bft)
_ Min-Zeit 05:45 14:40 23:00 - 22:45 - - 05:00 05:20 23:55
Minimum _ 10,5 C 47 % 1022,9 hPa - 0,0 km/h (0 Bft) - - 8,9 C 10,3 C 0,0 km/h (0 Bft)
_ Max-Zeit 14:40 06:15 00:00 23:55 13:25 - - 18:00 16:25 12:40
Maximum _ 27,0 C 91 % 1027,6 hPa 0,0 l/m 6,1 km/h
N-NW (2 Bft)
- - 15,7 C 29,5 C 14,8 km/h
N-NW (3 Bft)
Durchschnitt _ 19,1 C 70 % 1025,1 hPa #0,0 l/m 1,7 km/h (1 Bft) W-NW - 12,9 C 19,5 C 2,3 km/h (1 Bft)